Zurück zum Katalog

QIANFAN-187

AktivKommunikationPO
NORAD 69405·PAYLOAD·🇨🇳 China

Gestartet Jun 5, 2026 von Wenchang Space Launch Site

Loading…

Nächste Überflüge (nächste 24 Stunden)

TLE

AktuellSource: Space-Track

Epoche: Sep 14, 2026, 21:54 UTC

1 69405U 26125E   26257.91253217  .00000017  00000-0  81683-5 0  9991
2 69405  88.9885 270.8844 0002110 100.6032 259.5357 13.51007283 14068

Verfolge QIANFAN-187 in Echtzeit mit AllMySat

Download on the App Store